• In Hungary
  • List of Countries
  • For 7 days
  • Water Temperature
  • Satellite Maps
  • Weather Map
  • News
  • Weather Widgets
  • user-avatar
    Login

    Hourly Weather Malyy Ray

    Today, 24 May, Thursday

    Time Temperature Precipitation Wind Pressure Humidity
    00:00 +13°C° 0.3 mm 0 mps 749 mmHg 90%
    01:00 +13°C° 0.3 mm 0 mps 748 mmHg 90%
    02:00 +12°C° 0.3 mm 0 mps 748 mmHg 91%
    03:00 +12°C° 0.1 mm 0 mps 748 mmHg 91%
    04:00 +14°C° 0.1 mm 1 mps 748 mmHg 92%
    05:00 +14°C° 0.1 mm 1 mps 748 mmHg 92%
    06:00 +15°C° 0.3 mm 1 mps 748 mmHg 89%
    07:00 +18°C° 0.3 mm 1 mps 749 mmHg 85%
    08:00 +18°C° 0.3 mm 2 mps 749 mmHg 82%
    09:00 +19°C° 1.1 mm 2 mps 749 mmHg 77%
    10:00 +20°C° 1.1 mm 2 mps 749 mmHg 72%
    11:00 +21°C° 1.1 mm 2 mps 748 mmHg 67%
    12:00 +23°C° 0.6 mm 2 mps 748 mmHg 66%
    13:00 +23°C° 0.6 mm 2 mps 748 mmHg 64%
    14:00 +23°C° 0.6 mm 2 mps 748 mmHg 63%
    15:00 +23°C° 0.6 mm 2 mps 748 mmHg 67%
    16:00 +21°C° 0.6 mm 3 mps 748 mmHg 71%
    17:00 +21°C° 0.6 mm 3 mps 748 mmHg 75%
    18:00 +20°C° 0.3 mm 3 mps 748 mmHg 79%
    19:00 +18°C° 0.3 mm 3 mps 748 mmHg 84%
    20:00 +17°C° 0.3 mm 3 mps 748 mmHg 89%
    21:00 +16°C° 0.1 mm 3 mps 748 mmHg 89%
    22:00 +14°C° 0.1 mm 3 mps 749 mmHg 90%
    23:00 +14°C° 0.1 mm 4 mps 749 mmHg 90%

    Tomorrow, 25 May, Friday

    Time Temperature Precipitation Wind Pressure Humidity
    00:00 +13°C° 0 mm 3 mps 749 mmHg 91%
    01:00 +13°C° 0 mm 3 mps 749 mmHg 91%
    02:00 +12°C° 0 mm 3 mps 750 mmHg 92%
    03:00 +12°C° 0 mm 3 mps 750 mmHg 91%
    04:00 +12°C° 0 mm 3 mps 750 mmHg 91%
    05:00 +12°C° 0 mm 3 mps 750 mmHg 91%
    06:00 +14°C° 0 mm 4 mps 751 mmHg 87%
    07:00 +15°C° 0 mm 4 mps 751 mmHg 83%
    08:00 +18°C° 0 mm 4 mps 751 mmHg 79%
    09:00 +19°C° 0 mm 4 mps 752 mmHg 74%
    10:00 +20°C° 0 mm 5 mps 752 mmHg 69%
    11:00 +21°C° 0 mm 5 mps 752 mmHg 64%
    12:00 +22°C° 0 mm 5 mps 752 mmHg 63%
    13:00 +22°C° 0 mm 5 mps 752 mmHg 61%
    14:00 +22°C° 0 mm 5 mps 752 mmHg 60%
    15:00 +22°C° 0 mm 5 mps 752 mmHg 62%
    16:00 +21°C° 0 mm 4 mps 752 mmHg 64%
    17:00 +21°C° 0 mm 4 mps 752 mmHg 65%
    18:00 +19°C° 0 mm 4 mps 753 mmHg 68%
    19:00 +17°C° 0 mm 4 mps 753 mmHg 72%
    20:00 +14°C° 0 mm 4 mps 753 mmHg 75%
    21:00 +13°C° 0 mm 3 mps 754 mmHg 76%
    22:00 +12°C° 0 mm 3 mps 754 mmHg 77%
    23:00 +11°C° 0 mm 3 mps 755 mmHg 77%

    Day after tomorrow, 26 May, Saturday

    Time Temperature Precipitation Wind Pressure Humidity
    00:00 +11°C° 0 mm 3 mps 755 mmHg 78%
    01:00 +10°C° 0 mm 3 mps 755 mmHg 79%
    02:00 +9°C° 0 mm 3 mps 756 mmHg 80%
    03:00 +9°C° 0 mm 3 mps 756 mmHg 81%
    04:00 +9°C° 0 mm 3 mps 756 mmHg 82%
    05:00 +9°C° 0 mm 3 mps 756 mmHg 83%
    06:00 +11°C° 0 mm 3 mps 757 mmHg 77%
    07:00 +13°C° 0 mm 4 mps 757 mmHg 72%
    08:00 +14°C° 0 mm 4 mps 757 mmHg 66%
    09:00 +15°C° 0 mm 4 mps 757 mmHg 63%
    10:00 +17°C° 0 mm 4 mps 757 mmHg 59%
    11:00 +17°C° 0 mm 5 mps 757 mmHg 56%
    12:00 +19°C° 0 mm 5 mps 757 mmHg 55%
    13:00 +19°C° 0 mm 4 mps 756 mmHg 55%
    14:00 +20°C° 0 mm 4 mps 756 mmHg 55%
    15:00 +20°C° 0 mm 4 mps 756 mmHg 57%
    16:00 +20°C° 0 mm 4 mps 756 mmHg 60%
    17:00 +20°C° 0 mm 3 mps 755 mmHg 62%
    18:00 +18°C° 0 mm 3 mps 755 mmHg 67%
    19:00 +16°C° 0 mm 3 mps 755 mmHg 72%
    20:00 +13°C° 0 mm 3 mps 755 mmHg 77%
    21:00 +12°C° 0 mm 3 mps 755 mmHg 78%
    22:00 +11°C° 0 mm 3 mps 756 mmHg 79%
    23:00 +11°C° 0 mm 3 mps 756 mmHg 81%

    27 May, Sunday

    Time Temperature Precipitation Wind Pressure Humidity
    00:00 +10°C° 0 mm 3 mps 756 mmHg 82%
    01:00 +9°C° 0 mm 3 mps 756 mmHg 84%
    02:00 +9°C° 0 mm 2 mps 756 mmHg 86%
    03:00 +9°C° 0 mm 2 mps 756 mmHg 87%
    04:00 +9°C° 0 mm 3 mps 755 mmHg 88%
    05:00 +9°C° 0 mm 3 mps 755 mmHg 89%
    06:00 +11°C° 0 mm 3 mps 755 mmHg 83%
    07:00 +12°C° 0 mm 3 mps 755 mmHg 78%
    08:00 +14°C° 0 mm 3 mps 755 mmHg 73%
    09:00 +16°C° 0 mm 3 mps 755 mmHg 68%
    10:00 +17°C° 0 mm 3 mps 755 mmHg 63%
    11:00 +19°C° 0 mm 3 mps 755 mmHg 59%
    12:00 +19°C° 0 mm 2 mps 754 mmHg 57%
    13:00 +20°C° 0 mm 2 mps 754 mmHg 55%
    14:00 +20°C° 0 mm 2 mps 754 mmHg 54%
    15:00 +21°C° 0 mm 1 mps 753 mmHg 54%
    16:00 +21°C° 0 mm 1 mps 753 mmHg 55%
    17:00 +19°C° 0 mm 0 mps 753 mmHg 55%
    18:00 +17°C° 0 mm 0 mps 753 mmHg 61%
    19:00 +18°C° 0 mm 1 mps 753 mmHg 68%
    20:00 +15°C° 0 mm 1 mps 753 mmHg 74%
    21:00 +14°C° 0 mm 1 mps 753 mmHg 76%
    22:00 +13°C° 0 mm 1 mps 753 mmHg 78%
    23:00 +13°C° 0 mm 1 mps 753 mmHg 80%

    28 May, Monday

    Time Temperature Precipitation Wind Pressure Humidity
    00:00 +12°C° 0 mm 1 mps 753 mmHg 82%
    01:00 +12°C° 0 mm 1 mps 754 mmHg 83%
    02:00 +12°C° 0 mm 1 mps 754 mmHg 84%
    03:00 +12°C° 0 mm 1 mps 754 mmHg 84%
    04:00 +12°C° 0 mm 1 mps 754 mmHg 85%
    05:00 +12°C° 0 mm 2 mps 754 mmHg 85%
    06:00 +14°C° 0 mm 2 mps 754 mmHg 81%
    07:00 +16°C° 0 mm 2 mps 754 mmHg 76%
    08:00 +18°C° 0 mm 2 mps 755 mmHg 72%
    09:00 +20°C° 0.1 mm 3 mps 755 mmHg 69%
    10:00 +21°C° 0.1 mm 3 mps 755 mmHg 67%
    11:00 +22°C° 0.1 mm 3 mps 755 mmHg 64%
    12:00 +23°C° 0.1 mm 4 mps 755 mmHg 62%
    13:00 +23°C° 0.1 mm 4 mps 755 mmHg 60%
    14:00 +23°C° 0.1 mm 4 mps 755 mmHg 58%
    15:00 +23°C° 0 mm 4 mps 755 mmHg 60%
    16:00 +22°C° 0 mm 4 mps 755 mmHg 62%
    17:00 +22°C° 0 mm 4 mps 755 mmHg 64%
    18:00 +20°C° 0 mm 3 mps 755 mmHg 68%
    19:00 +18°C° 0 mm 3 mps 755 mmHg 71%
    20:00 +14°C° 0 mm 3 mps 755 mmHg 74%
    21:00 +13°C° 0 mm 3 mps 756 mmHg 73%
    22:00 +12°C° 0 mm 3 mps 756 mmHg 71%
    23:00 +11°C° 0 mm 3 mps 756 mmHg 69%

    29 May, Tuesday

    Time Temperature Precipitation Wind Pressure Humidity
    00:00 +10°C° 0 mm 2 mps 757 mmHg 70%
    01:00 +10°C° 0 mm 2 mps 757 mmHg 71%
    02:00 +9°C° 0 mm 2 mps 757 mmHg 71%
    03:00 +9°C° 0 mm 2 mps 757 mmHg 73%
    04:00 +9°C° 0 mm 2 mps 757 mmHg 75%
    05:00 +10°C° 0 mm 1 mps 757 mmHg 76%
    06:00 +12°C° 0 mm 1 mps 757 mmHg 71%
    07:00 +14°C° 0 mm 1 mps 757 mmHg 65%
    08:00 +18°C° 0 mm 1 mps 757 mmHg 60%
    09:00 +19°C° 0 mm 1 mps 757 mmHg 55%
    10:00 +20°C° 0 mm 1 mps 757 mmHg 51%
    11:00 +22°C° 0 mm 1 mps 757 mmHg 47%
    12:00 +22°C° 0 mm 1 mps 756 mmHg 46%
    13:00 +23°C° 0 mm 1 mps 756 mmHg 45%
    14:00 +23°C° 0 mm 1 mps 756 mmHg 44%
    15:00 +23°C° 0 mm 1 mps 755 mmHg 46%
    16:00 +23°C° 0 mm 1 mps 755 mmHg 49%
    17:00 +23°C° 0 mm 1 mps 754 mmHg 51%
    18:00 +21°C° 0 mm 1 mps 754 mmHg 56%
    19:00 +19°C° 0 mm 1 mps 754 mmHg 61%
    20:00 +16°C° 0 mm 1 mps 754 mmHg 66%
    21:00 +15°C° 0 mm 1 mps 754 mmHg 68%
    22:00 +14°C° 0 mm 1 mps 754 mmHg 69%
    23:00 +14°C° 0 mm 1 mps 754 mmHg 71%
    Show more